Regional Weather Roundup
Issued by NWS

Home | Current Version | Previous Version | Graphics & Text | Print | Product List | Glossary On
Versions: 1 2 3 4 5 6 7 8 9 10 11 12 13 14 15 16 17 18 19 20 21 22 23 24 25 26 27 28 29 30 31 32 33 34 35 36 37 38 39 40 41 42 43 44 45 46 47 48 49 50
000
ASUS43 KIND 291509
RWRIN

WEATHER ROUNDUP FOR INDIANA
NATIONAL WEATHER SERVICE INDIANAPOLIS IN
1100 AM EDT FRI JUL 29 2016

NOTE: "FAIR" INDICATES FEW OR NO CLOUDS BELOW 12,000 FEET WITH NO
SIGNIFICANT WEATHER AND/OR OBSTRUCTIONS TO VISIBILITY.

* - STATION DOES NOT REPORT WEATHER SUCH AS PRECIPITATION OR FOG.

+ - STATION NOT QUALITY CONTROLLED BY THE NATIONAL WEATHER SERVICE.
    USE DATA WITH CAUTION...ESPECIALLY DEWPOINT AND RELATIVE
    HUMIDITY OBSERVATIONS.

INZ001>003-010>013-019-020-291600-
NORTHWEST INDIANA

CITY           SKY/WX    TMP DP  RH WIND       PRES   REMARKS
KNOX *+        SUNNY     77  63  61 CALM      29.94R
LA PORTE +     SUNNY     80  74  82 CALM      29.95S
MICHIGAN CITY+ SUNNY     79  73  83 SW3       29.94S
MONTICELLO +   MOSUNNY   79  70  72 W3        29.93R
RENSSELAER +   SUNNY     79  73  83 CALM      29.93F
VALPARAISO     SUNNY     80  70  71 CALM      29.94R

$$

LMZ046-743>745-291600-
SOUTHERN LAKE MICHIGAN

STATION/POSITION TIME  TEMP    WIND        PRES    WAVE
                       AIR SEA DIR/SP/G            HT
                 (UTC) (F)     (DEG/KT/KT) (MB)    (FT)
BURNS HARBOR     1400   74      50/  6/  8 1013.9S
MICHIGAN CITY    1400   72      10/  4/  4   N/A
5NW MICH CITY    1500   74 77   40/  2/  4   N/A     1

$$

INZ004-005-014>016-021>024-291600-
NORTH CENTRAL INDIANA

CITY           SKY/WX    TMP DP  RH WIND       PRES   REMARKS
ELKHART        SUNNY     75  66  73 E5        29.96R
GOSHEN         MOSUNNY   78  66  66 E6        29.95R
LOGANSPORT +   SUNNY     79  70  73 S3        29.94S
PERU/GRISSOM   SUNNY     82  70  66 SE5       29.93R
ROCHESTER +    SUNNY     81  72  74 CALM      29.95R
SOUTH BEND     SUNNY     77  69  76 CALM      29.95R
WARSAW +       SUNNY     77  68  73 S3        29.94R

$$

INZ006>009-017-018-025>027-291600-
NORTHEAST INDIANA

CITY           SKY/WX    TMP DP  RH WIND       PRES   REMARKS
ANGOLA *+        N/A     77  66  69 E5        29.95S
AUBURN +       SUNNY     79  63  57 E3        29.95S
FORT WAYNE     MOSUNNY   80  69  69 VRB3      29.94S
HUNTINGTON +   SUNNY     77  70  77 SW3       29.94R

$$

INZ028-029-035-036-043>045-051>053-291600-
WEST CENTRAL INDIANA

CITY           SKY/WX    TMP DP  RH WIND       PRES   REMARKS
CRAWFORDSVL +  CLOUDY    73  73 100 S5        29.95R
GREENCASTLE +  CLOUDY    73  73 100 CALM      29.95F FOG
LAFAYETTE      SUNNY     81  74  79 CALM      29.93R
TERRE HAUTE    PTSUNNY   80  72  76 CALM      29.95R

$$

INZ030>032-037>040-046>048-054>057-064-065-291600-
CENTRAL INDIANA

CITY           SKY/WX    TMP DP  RH WIND       PRES   REMARKS
ANDERSON       MOSUNNY   79  68  69 CALM      29.95R
COLUMBUS       SUNNY     75  73  94 CALM      29.95S
FISHERS *+     MOSUNNY   82  73  74 SE3       29.94S
INDIANAPOLIS   MOSUNNY   80  73  79 SW5       29.95R
-EAGLE CREEK   MOSUNNY   82  72  71 SW3       29.93S
KOKOMO *+      SUNNY     81  68  65 CALM      29.93S
MARION +       SUNNY     79  69  71 CALM      29.95R HAZE
MT COMFORT *+  MOSUNNY   79  70  73 CALM      29.96R
SHELBYVILLE    MOSUNNY   79  71  76 SW3       29.95R
ZIONSVILLE +   SUNNY     79  71  77 SW3       29.95S

$$

INZ033-034-041-042-049-050-058-059-291600-
EAST CENTRAL INDIANA

CITY           SKY/WX    TMP DP  RH WIND       PRES   REMARKS
MUNCIE         SUNNY     84  70  62 CALM      29.94S

$$

INZ060-061-067>069-081>083-085>088-291600-
SOUTHWEST INDIANA

CITY           SKY/WX    TMP DP  RH WIND       PRES   REMARKS
EVANSVILLE     CLOUDY    79  71  76 W3        29.96R
HUNTINGBURG *+ PTSUNNY   79  72  78 W7        29.96R
WASHINGTON +   PTSUNNY   78  75  90 MISG      29.95R

$$

INZ062-063-066-070>080-084-089>092-291600-
SOUTH CENTRAL AND SOUTHEAST INDIANA

CITY           SKY/WX    TMP DP  RH WIND       PRES   REMARKS
BLOOMINGTON    MOSUNNY   79  71  76 CALM      29.95R
MADISON *+     MOSUNNY   77  70  78 S5        29.98S
NORTH VERNON + MOSUNNY  N/A N/A N/A CALM      29.96S
SEYMOUR +      MOSUNNY   75  75 100 CALM      29.95S

$$




USA.gov is the U.S. government's official web portal to all federal, state and local government web resources and services.